AirNav   Pilot Hours Calculator
 
 1323 users online  

KUYF Madison County Airport
London, Ohio, USA

GOING TO LONDON?


FAA INFORMATION EFFECTIVE 16 JUNE 2022

Location

FAA Identifier: UYF
Lat/Long: 39-55-57.8000N 083-27-43.2000W
39-55.963333N 083-27.720000W
39.9327222,-83.4620000
(estimated)
Elevation: 1081.6 ft. / 329.7 m (surveyed)
Variation: 06W (2000)
From city: 3 miles N of LONDON, OH
Time zone: UTC -4 (UTC -5 during Standard Time)
Zip code: 43140

Airport Operations

Airport use: Open to the public
Control tower: no
ARTCC: INDIANAPOLIS CENTER
FSS: DAYTON FLIGHT SERVICE STATION
NOTAMs facility: DAY (NOTAM-D service available)
Attendance: MON-FRI 0800-1600, ALL SAT-SUN 0900-1700
Wind indicator: lighted
Segmented circle: no
Lights: ACTVT REIL RWY 09 & 27; MIRL RWY 09/27 - CTAF. PAPI RWY 09 & 27 OPR CONSLY.
Beacon: white-green (lighted land airport)
Operates sunset to sunrise.

Airport Communications

CTAF/UNICOM: 123.0
WX AWOS-3PT: 120.85 (740-852-2844)
COLUMBUS APPROACH: 118.85
COLUMBUS DEPARTURE: 118.85
CLASS C: 118.85
IC: 118.85
WX AWOS-3 at TZR (15 nm E): 135.925 (614-878-1722)
WX AWOS-3 at I74 (18 nm NW): 118.325 (937-484-5863)
WX AWOS-3 at MRT (18 nm N): 119.275 (937-644-2967)
WX AWOS-3PT at SGH (18 nm W): 134.975 (937-324-4532)
WX ASOS at OSU (20 nm NE): 121.35 (614-451-2465)

Airport Services

Fuel available: 100LL JET-A
100LL:FUEL AVBL H24 SELF SER.
Parking: hangars and tiedowns
Airframe service: MINOR
Powerplant service: MINOR
Bottled oxygen: NONE
Bulk oxygen: NONE

Runway Information

Runway 9/27

Dimensions: 4001 x 75 ft. / 1220 x 23 m
Surface: asphalt, in fair condition
Weight bearing capacity: 
Single wheel: 30.0
Double wheel: 40.0
Runway edge lights: medium intensity
Runway edge markings: FADED.
RUNWAY 9  RUNWAY 27
Latitude: 39-55.943358N39-55.982148N
Longitude: 083-28.146760W083-27.292362W
Elevation: 1081.5 ft.1051.0 ft.
Traffic pattern: leftleft
Runway heading: 093 magnetic, 087 true273 magnetic, 267 true
Markings: nonprecision, in poor conditionnonprecision, in poor condition
Visual slope indicator: 4-light PAPI on left (3.00 degrees glide path)4-light PAPI on left (3.00 degrees glide path)
Runway end identifier lights: yesyes
Touchdown point: yes, no lightsyes, no lights
Obstructions: 10 ft. crops, 201 ft. from runway, 200 ft. right of centerline
+10 FT CROPS, 0-200 FT DIST, 200 FT R; +8-10 FT CROPS, 65-200 FT DIST, 200 FT L.
5 ft. crops, 201 ft. from runway, 194 ft. left of centerline
+5-7 FT CROPS, 0-200 FT DIST, 194 FT L; +3-12 FT BRUSH/TREES, 60-200 FT DIST, 175 FT R.

Airport Ownership and Management from official FAA records

Ownership: Publicly-owned
Owner: MADISON COUNTY AIRPORT AUTH
1281 US HIGHWAY 40 SW
LONDON, OH 43140-9213
Phone 740-852-5040
Manager: JOHN DUHL
1281 US HIGHWAY 40 SW
LONDON, OH 43140-9213
Phone 740-852-5040
AIRPORT@CO.MADISON.OH.US.

Airport Operational Statistics

Aircraft based on the field: 33
Single engine airplanes: 32
Helicopters: 1
    
Aircraft operations: avg 113/day *
51% local general aviation
44% transient general aviation
5% military
<1% air taxi
* for 12-month period ending 10 September 2020

Additional Remarks

FOR CD CTC COLUMBUS APCH AT 614-338-8537.

Instrument Procedures

NOTE: All procedures below are presented as PDF files. If you need a reader for these files, you should download the free Adobe Reader.

NOT FOR NAVIGATION. Please procure official charts for flight.
FAA instrument procedures published for use from 16 June 2022 at 0901Z to 14 July 2022 at 0900z.

 
IAPs - Instrument Approach Procedures
RNAV (GPS) RWY 09   download (231KB)
RNAV (GPS) RWY 27   download (223KB)
NOTE: Special Take-Off Minimums/Departure Procedures apply   download (545KB)

Other nearby airports with instrument procedures:

KTZR - Bolton Field Airport (15 nm E)
I74 - Grimes Field Airport (18 nm NW)
KMRT - Union County Airport (18 nm N)
KSGH - Springfield/Beckley Municipal Airport (18 nm W)
KOSU - Ohio State University Airport (20 nm NE)
 
Loc | Ops | Rwys | IFR | FBO | Links
Com | Nav | Svcs | Stats | Notes
Area around KUYF (Madison County Airport)
 
Road maps at: MapQuest Bing Google
 
Aerial photo
WARNING: Photo may not be current or correct
Aerial photo of KUYF (Madison County Airport)
Do you have a better or more recent aerial photo of Madison County Airport that you would like to share? If so, please send us your photo.

 
Sectional chart

 
Airport distance calculator
Flying to Madison County Airport? Find the distance to fly.

From to KUYF

Sunrise and sunset
Times for 02-Jul-2022
 Local
(UTC-4)
 Zulu
(UTC)
Morning civil twilight05:3809:38
Sunrise06:1010:10
Sunset21:0501:05
Evening civil twilight21:3801:38

Current date and time
Zulu (UTC)  02-Jul-2022 21:22:07
Local (UTC-4)  02-Jul-2022 17:22:07
 
METAR
KUYF 022055Z AUTO 32008KT 10SM CLR 30/08 A3000 RMK AO2
KTZR 
15nm E 
022047Z 35007G16KT 10SM CLR 29/13 A3000
KSGH 
18nm SW 
022056Z AUTO 31009KT 10SM CLR 29/13 A3001 RMK AO2 SLPNO T02940133 58013 $
KI74 
18nm NW 
022055Z AUTO 35005KT 10SM CLR 28/11 A3002 RMK AO2
KMRT 
18nm N 
022055Z AUTO 35009G14KT 10SM CLR 30/09 A3001 RMK AO2 T02950085
KOSU 
20nm NE 
022053Z 32006KT 10SM CLR 31/12 A3000 RMK AO2 SLP149 T03060122 58008
TAF
KLCK 
26nm E 
021743Z 0218/0318 35006KT P6SM FEW040 FM022300 02004KT P6SM BKN200 FM030600 VRB02KT P6SM BKN150 FM031100 04005KT P6SM SKC
KCMH 
27nm E 
021743Z 0218/0318 35006KT P6SM FEW040 FM022300 01004KT P6SM BKN200 FM030600 VRB02KT P6SM BKN150 FM031100 04005KT P6SM SKC
KFFO 
27nm W 
020025Z 0123/0301 25009KT 9999 SCT050 BKN250 QNH2990INS TEMPO 0200/0202 VRB15G25KT 3200 TSRA BKN025CB BKN050 BKN250 BECMG 0203/0204 27009KT 9000 -SHRA VCTS SCT025CB BKN040 BKN080 QNH2994INS TEMPO 0204/0209 VRB15G25KT 3200 TSRA BKN025CB OVC040 BECMG 0209/0210 34009KT 9999 VCSH BKN015 BKN025 QNH2997INS BECMG 0213/0214 36009KT 9999 NSW SCT050 SCT250 QNH2999INS BECMG 0222/0223 VRB06KT 9999 SCT250 QNH3000INS TX30/0219Z TN20/0210Z
NOTAMs
Click for the latest NOTAMs
NOTAMs are issued by the DoD/FAA and will open in a separate window not controlled by AirNav.

 

 
 

FBO, Fuel Providers, and Aircraft Ground Support

  
 Business Name 
 
 Contact 
 
 Services / Description 
 
Fuel Prices
 
Comments
  
Madison County Airport 740-852-5040
[web site]
[email]
Airport management, Aviation fuel, Aircraft parking (ramp or tiedown), Hangar leasing / sales, ...

More info about Madison County Airport
EPIC
100LL Jet A
AS $6.46 $5.35 
 Updated 16-Jun-2022
 
   1 read write
AS=Assisted/Self Service
Update Fuel Prices
 

Would you like to see your business listed on this page?

 If your business provides an interesting product or service to pilots, flight crews, aircraft, or users of the Madison County Airport, you should consider listing it here.  To start the listing process, click on the button below
 
Add a business
 

Other Pages about Madison County Airport

co.madison.oh.us/airport
 
Update a link
 
Copyright © AirNav, LLC. All rights reserved. Privacy Policy  Contact